New Ulm, MN

5:53 PM CST on November 18, 2019 (GMT -0600)
New Ulm Municipal

Weather History for KULM - October, 2019

Change the Weather History Date:

Friday, October 18, 2019

  Actual Average Record
Temperature  
Mean Temperature 58 °F -  
Max Temperature 71 °F 57 °F 81 °F (1956)
Min Temperature 46 °F 36 °F 3 °F (1997)
Degree Days  
Heating Degree Days 6    
Growing Degree Days 8 (Base 50)    
Moisture  
Dew Point 41 °F    
Average Humidity 58    
Maximum Humidity 76    
Minimum Humidity 31    
Precipitation  
Precipitation 0.00 in - - ()
Sea Level Pressure  
Sea Level Pressure 29.62 in    
Wind  
Wind Speed 14 mph ()    
Max Wind Speed 26 mph    
Max Gust Speed 36 mph    
Visibility 10.0 miles    
Events      
Averages and records for this station are not official NWS values.
T = Trace of Precipitation, MM = Missing Value Source: Averaged Metar Reports

Daily Weather History Graph

Daily Weather History Graph

Search for Another Location

Airport or City:

Astronomy

Oct. 18, 2019 Rise Set
Actual Time 7:36 AM CDT 6:29 PM CDT
Civil Twilight 7:07 AM CDT 6:58 PM CDT
Nautical Twilight 6:33 AM CDT 7:32 PM CDT
Astronomical Twilight 5:59 AM CDT 8:05 PM CDT
Moon 9:37 PM CDT 12:18 PM CDT
Length of Visible Light 11h 51m
Length of Day
10h 52m
Waning Gibbous, 78% of the Moon is Illuminated
Oct 18
Waning Gibbous
Oct 21
Last Quarter
Oct 27
New
Nov 4
First Quarter
Nov 12
Full

Hourly Weather History & Observations

Time (CDT) Temp. Windchill Dew Point Humidity Pressure Visibility Wind Dir Wind Speed Gust Speed Precip Events Conditions
12:15 AM 48.2 °F - 37.4 °F 66% 29.81 in 10.0 mi SE 11.5 mph 18.4 mph N/A   Clear
12:35 AM 48.2 °F - 37.4 °F 66% 29.81 in 10.0 mi SSE 10.4 mph 17.3 mph N/A   Clear
12:36 AM 48.2 °F - 37.4 °F 66% 29.81 in 10.0 mi SSE 10.4 mph 17.3 mph N/A   Clear
12:55 AM 48.2 °F - 37.4 °F 66% 29.80 in 10.0 mi SSE 10.4 mph - N/A   Clear
1:15 AM 48.2 °F - 39.2 °F 71% 29.79 in 10.0 mi SE 11.5 mph - N/A   Clear
1:16 AM 48.2 °F - 39.2 °F 71% 29.79 in 10.0 mi SE 11.5 mph - N/A   Clear
1:35 AM 48.2 °F - 39.2 °F 71% 29.79 in 10.0 mi SE 10.4 mph - N/A   Clear
1:55 AM 46.4 °F 41.5 °F 39.2 °F 76% 29.79 in 10.0 mi SE 10.4 mph - N/A   Clear
2:15 AM 46.4 °F 41.5 °F 39.2 °F 76% 29.78 in 10.0 mi SE 10.4 mph 16.1 mph N/A   Clear
2:16 AM 46.4 °F 41.1 °F 39.2 °F 76% 29.78 in 10.0 mi SE 11.5 mph 16.1 mph N/A   Clear
2:35 AM 46.4 °F 41.1 °F 39.2 °F 76% 29.77 in 10.0 mi SSE 11.5 mph - N/A   Clear
2:36 AM 46.4 °F 41.1 °F 39.2 °F 76% 29.77 in 10.0 mi SE 11.5 mph - N/A   Clear
2:55 AM 46.4 °F 40.7 °F 39.2 °F 76% 29.76 in 10.0 mi SE 12.7 mph 17.3 mph N/A   Clear
2:56 AM 46.4 °F 40.4 °F 39.2 °F 76% 29.76 in 10.0 mi SE 13.8 mph 17.3 mph N/A   Clear
3:15 AM 46.4 °F 40.7 °F 39.2 °F 76% 29.75 in 10.0 mi SE 12.7 mph - N/A   Clear
3:16 AM 46.4 °F 40.4 °F 39.2 °F 76% 29.75 in 10.0 mi SE 13.8 mph - N/A   Clear
3:35 AM 46.4 °F 40.7 °F 39.2 °F 76% 29.74 in 10.0 mi SE 12.7 mph - N/A   Clear
3:55 AM 46.4 °F 40.7 °F 39.2 °F 76% 29.74 in 10.0 mi SE 12.7 mph 18.4 mph N/A   Clear
3:56 AM 46.4 °F 40.4 °F 39.2 °F 76% 29.74 in 10.0 mi SE 13.8 mph 19.6 mph N/A   Clear
4:15 AM 46.4 °F 40.7 °F 39.2 °F 76% 29.74 in 10.0 mi SSE 12.7 mph 19.6 mph N/A   Clear
4:35 AM 46.4 °F 40.7 °F 39.2 °F 76% 29.73 in 10.0 mi SE 12.7 mph 18.4 mph N/A   Clear
4:36 AM 46.4 °F 41.1 °F 39.2 °F 76% 29.73 in 10.0 mi SE 11.5 mph 18.4 mph N/A   Clear
4:55 AM 46.4 °F 40.4 °F 39.2 °F 76% 29.73 in 10.0 mi SSE 13.8 mph - N/A   Clear
5:15 AM 46.4 °F 40.7 °F 39.2 °F 76% 29.71 in 10.0 mi SE 12.7 mph - N/A   Clear
5:16 AM 46.4 °F 41.5 °F 39.2 °F 76% 29.71 in 10.0 mi SE 10.4 mph - N/A   Clear
5:35 AM 46.4 °F 40.4 °F 39.2 °F 76% 29.71 in 10.0 mi SE 13.8 mph 19.6 mph N/A   Clear
5:55 AM 46.4 °F 40.1 °F 39.2 °F 76% 29.69 in 10.0 mi SE 15.0 mph 21.9 mph N/A   Clear
6:15 AM 46.4 °F 39.8 °F 39.2 °F 76% 29.69 in 10.0 mi SSE 16.1 mph 19.6 mph N/A   Clear
6:35 AM 46.4 °F 41.1 °F 39.2 °F 76% 29.69 in 10.0 mi SSE 11.5 mph - N/A   Clear
6:36 AM 46.4 °F 41.1 °F 39.2 °F 76% 29.69 in 10.0 mi SSE 11.5 mph 19.6 mph N/A   Clear
6:55 AM 46.4 °F 40.4 °F 39.2 °F 76% 29.69 in 10.0 mi SSE 13.8 mph 20.7 mph N/A   Clear
7:15 AM 46.4 °F 40.1 °F 39.2 °F 76% 29.68 in 10.0 mi SSE 15.0 mph 20.7 mph N/A   Clear
7:16 AM 46.4 °F 40.4 °F 39.2 °F 76% 29.68 in 10.0 mi SSE 13.8 mph 20.7 mph N/A   Clear
7:35 AM 46.4 °F 40.4 °F 39.2 °F 76% 29.68 in 10.0 mi SSE 13.8 mph 18.4 mph N/A   Clear
7:36 AM 46.4 °F 40.4 °F 39.2 °F 76% 29.68 in 10.0 mi SSE 13.8 mph 18.4 mph N/A   Clear
7:55 AM 46.4 °F 40.1 °F 39.2 °F 76% 29.67 in 10.0 mi SSE 15.0 mph 18.4 mph N/A   Clear
8:15 AM 46.4 °F 40.7 °F 39.2 °F 76% 29.67 in 10.0 mi SSE 12.7 mph 19.6 mph N/A   Clear
8:16 AM 46.4 °F 40.4 °F 39.2 °F 76% 29.67 in 10.0 mi SSE 13.8 mph 19.6 mph N/A   Clear
8:35 AM 46.4 °F 40.4 °F 39.2 °F 76% 29.66 in 10.0 mi SSE 13.8 mph 20.7 mph N/A   Clear
8:55 AM 46.4 °F 39.5 °F 39.2 °F 76% 29.66 in 10.0 mi SSE 17.3 mph 20.7 mph N/A   Clear
8:56 AM 46.4 °F 39.8 °F 39.2 °F 76% 29.66 in 10.0 mi SSE 16.1 mph 20.7 mph N/A   Clear
9:15 AM 48.2 °F - 39.2 °F 71% 29.65 in 10.0 mi SSE 16.1 mph 21.9 mph N/A   Clear
9:35 AM 48.2 °F - 41.0 °F 76% 29.65 in 10.0 mi SSE 15.0 mph 20.7 mph N/A   Clear
9:36 AM 48.2 °F - 41.0 °F 76% 29.65 in 10.0 mi SSE 17.3 mph 23.0 mph N/A   Clear
9:55 AM 50.0 °F - 41.0 °F 71% 29.64 in 10.0 mi SSE 13.8 mph 24.2 mph N/A   Clear
10:15 AM 51.8 °F - 42.8 °F 71% 29.64 in 10.0 mi SSE 15.0 mph 21.9 mph N/A   Clear
10:16 AM 51.8 °F - 42.8 °F 71% 29.64 in 10.0 mi SSE 15.0 mph 21.9 mph N/A   Clear
10:35 AM 53.6 °F - 42.8 °F 67% 29.62 in 10.0 mi SSE 16.1 mph 20.7 mph N/A   Clear
10:55 AM 55.4 °F - 42.8 °F 63% 29.61 in 10.0 mi SSE 18.4 mph 24.2 mph N/A   Clear
10:56 AM 55.4 °F - 42.8 °F 63% 29.61 in 10.0 mi South 20.7 mph 24.2 mph N/A   Clear
11:15 AM 57.2 °F - 42.8 °F 59% 29.61 in 10.0 mi SSE 20.7 mph 28.8 mph N/A   Clear
11:35 AM 57.2 °F - 42.8 °F 59% 29.61 in 10.0 mi SSE 18.4 mph 26.5 mph N/A   Clear
11:36 AM 57.2 °F - 42.8 °F 59% 29.61 in 10.0 mi SSE 20.7 mph 26.5 mph N/A   Clear
11:55 AM 59.0 °F - 42.8 °F 55% 29.59 in 10.0 mi SSE 21.9 mph 28.8 mph N/A   Clear
12:15 PM 60.8 °F - 42.8 °F 52% 29.59 in 10.0 mi SSE 19.6 mph 27.6 mph N/A   Clear
12:35 PM 60.8 °F - 42.8 °F 52% 29.57 in 10.0 mi SSE 16.1 mph - N/A   Clear
12:55 PM 62.6 °F - 44.6 °F 52% 29.57 in 10.0 mi SSE 20.7 mph 28.8 mph N/A   Clear
12:56 PM 62.6 °F - 44.6 °F 52% 29.57 in 10.0 mi SSE 20.7 mph 28.8 mph N/A   Clear
1:15 PM 64.4 °F - 42.8 °F 45% 29.56 in 10.0 mi South 20.7 mph 28.8 mph N/A   Clear
1:16 PM 64.4 °F - 42.8 °F 45% 29.56 in 10.0 mi SSE 18.4 mph 25.3 mph N/A   Clear
1:35 PM 64.4 °F - 42.8 °F 45% 29.54 in 10.0 mi SSE 21.9 mph - N/A   Clear
1:55 PM 66.2 °F - 42.8 °F 43% 29.53 in 10.0 mi SSE 20.7 mph 29.9 mph N/A   Clear
1:56 PM 66.2 °F - 42.8 °F 43% 29.53 in 10.0 mi SSE 18.4 mph 29.9 mph N/A   Clear
2:15 PM 68.0 °F - 41.0 °F 37% 29.50 in 10.0 mi SSE 21.9 mph 28.8 mph N/A   Clear
2:16 PM 68.0 °F - 41.0 °F 37% 29.50 in 10.0 mi SSE 21.9 mph 28.8 mph N/A   Clear
2:35 PM 69.8 °F - 42.8 °F 38% 29.49 in 10.0 mi SSE 20.7 mph 27.6 mph N/A   Clear
2:55 PM 69.8 °F - 41.0 °F 35% 29.47 in 10.0 mi SSE 24.2 mph 34.5 mph N/A   Clear
3:15 PM 71.6 °F - 41.0 °F 33% 29.47 in 10.0 mi SSE 26.5 mph 35.7 mph N/A   Clear
3:35 PM 71.6 °F - 41.0 °F 33% 29.46 in 10.0 mi SSE 24.2 mph 34.5 mph N/A   Clear
3:36 PM 71.6 °F - 41.0 °F 33% 29.46 in 10.0 mi SSE 24.2 mph 34.5 mph N/A   Clear
3:55 PM 71.6 °F - 42.8 °F 35% 29.46 in 10.0 mi South 25.3 mph 33.4 mph N/A   Clear
4:15 PM 71.6 °F - 41.0 °F 33% 29.47 in 10.0 mi South 26.5 mph 33.4 mph N/A   Clear
4:16 PM 71.6 °F - 41.0 °F 33% 29.47 in 10.0 mi South 21.9 mph 33.4 mph N/A   Clear
4:35 PM 71.6 °F - 42.8 °F 35% 29.48 in 10.0 mi South 20.7 mph 33.4 mph N/A   Clear
4:55 PM 71.6 °F - 41.0 °F 33% 29.48 in 10.0 mi South 21.9 mph 28.8 mph N/A   Clear
5:15 PM 71.6 °F - 41.0 °F 33% 29.49 in 10.0 mi South 18.4 mph 26.5 mph N/A   Mostly Cloudy
5:16 PM 71.6 °F - 41.0 °F 33% 29.49 in 10.0 mi South 18.4 mph 26.5 mph N/A   Mostly Cloudy
5:35 PM 71.6 °F - 39.2 °F 31% 29.48 in 10.0 mi South 21.9 mph 31.1 mph N/A   Overcast
5:55 PM 69.8 °F - 39.2 °F 33% 29.49 in 10.0 mi South 20.7 mph 26.5 mph N/A   Overcast
5:56 PM 69.8 °F - 39.2 °F 33% 29.49 in 10.0 mi South 19.6 mph 26.5 mph N/A   Overcast
6:15 PM 69.8 °F - 39.2 °F 33% 29.49 in 10.0 mi South 20.7 mph 26.5 mph N/A   Overcast
6:35 PM 69.8 °F - 39.2 °F 33% 29.49 in 10.0 mi SSE 16.1 mph 24.2 mph N/A   Overcast
6:36 PM 69.8 °F - 39.2 °F 33% 29.49 in 10.0 mi SSE 17.3 mph 25.3 mph N/A   Overcast
6:55 PM 69.8 °F - 39.2 °F 33% 29.50 in 10.0 mi South 18.4 mph 28.8 mph N/A   Overcast
7:15 PM 68.0 °F - 41.0 °F 37% 29.50 in 10.0 mi South 17.3 mph - N/A   Overcast
7:35 PM 68.0 °F - 41.0 °F 37% 29.51 in 10.0 mi South 18.4 mph 23.0 mph N/A   Overcast
7:36 PM 68.0 °F - 41.0 °F 37% 29.51 in 10.0 mi SSE 18.4 mph 23.0 mph N/A   Overcast
7:55 PM 66.2 °F - 41.0 °F 40% 29.51 in 10.0 mi South 20.7 mph 25.3 mph N/A   Overcast
8:15 PM 66.2 °F - 42.8 °F 43% 29.52 in 10.0 mi SSE 16.1 mph 24.2 mph N/A   Overcast
8:16 PM 66.2 °F - 42.8 °F 43% 29.52 in 10.0 mi SSE 16.1 mph 24.2 mph N/A   Overcast
8:35 PM 66.2 °F - 42.8 °F 43% 29.52 in 10.0 mi South 17.3 mph - N/A   Mostly Cloudy
8:55 PM 64.4 °F - 42.8 °F 45% 29.53 in 10.0 mi South 15.0 mph - N/A   Mostly Cloudy
8:56 PM 64.4 °F - 42.8 °F 45% 29.53 in 10.0 mi South 13.8 mph - N/A   Mostly Cloudy
9:15 PM 62.6 °F - 42.8 °F 48% 29.53 in 10.0 mi South 16.1 mph 20.7 mph N/A   Scattered Clouds
9:16 PM 62.6 °F - 42.8 °F 48% 29.54 in 10.0 mi South 15.0 mph 20.7 mph N/A   Scattered Clouds
9:35 PM 62.6 °F - 42.8 °F 48% 29.54 in 10.0 mi South 12.7 mph - N/A   Clear
9:55 PM 60.8 °F - 42.8 °F 52% 29.54 in 10.0 mi South 13.8 mph - N/A   Clear
10:15 PM 60.8 °F - 42.8 °F 52% 29.54 in 10.0 mi South 15.0 mph - N/A   Clear
10:35 PM 60.8 °F - 42.8 °F 52% 29.55 in 10.0 mi South 11.5 mph 19.6 mph N/A   Clear
10:55 PM 59.0 °F - 42.8 °F 55% 29.55 in 10.0 mi SSW 10.4 mph - N/A   Clear
11:15 PM 57.2 °F - 42.8 °F 59% 29.56 in 10.0 mi SSW 8.1 mph - N/A   Clear
11:35 PM 55.4 °F - 42.8 °F 63% 29.57 in 10.0 mi SSW 9.2 mph - N/A   Clear
11:55 PM 53.6 °F - 42.8 °F 67% 29.57 in 10.0 mi SW 4.6 mph - N/A   Clear